[[{"header":{"parameterUnit":"m.s-1","parameterCategory":1,"la1":30.2991,"la2":30.254,"lo1":-89.0895,"lo2":-89.0444,"dy":0.0017,"dx":0.0017,"nx":28,"ny":28,"refTime":"2023-11-09T03:00:00:Z","depth":0,"parameterNumber":2,"parameterNumberName":"U-component_of_WINDS"},"data":[0,0,0,0,0,0,0,0,0,0,0,0,0,0,0,0,0,0,0,0,0,0,0,0,0,0,0,0,0,0,0,0,0,0,0,0,0,0,0,0,0,0,0,0,0,0,0,0,0,0,0,0,0,0,0,0,0,0,-2.3705,-2.3706,0,-2.3738,-2.3738,-2.3738,-2.3717,-2.3716,-2.3715,-2.3715,-2.3745,-2.3747,-2.3748,0,0,0,0,0,0,0,0,0,0,0,0,0,-2.3623,-2.3624,-2.3705,-2.3706,-2.3706,-2.3738,-2.3738,-2.3738,-2.3718,-2.3716,-2.3715,-2.3714,-2.3744,-2.3746,-2.3748,0,0,0,0,0,0,0,0,0,0,0,0,0,-2.3657,-2.3625,-2.3705,-2.37,-2.3699,-2.3738,-2.3738,-2.3739,-2.3718,-2.3716,-2.3715,-2.3714,-2.3744,-2.3746,-2.3749,-2.3793,0,0,-2.3757,-2.3758,0,0,0,0,0,0,0,0,-2.3655,-2.366,-2.37,-2.37,-2.37,-2.3722,-2.372,-2.3757,-2.3718,-2.3711,-2.3714,-2.3713,-2.3738,-2.3741,-2.375,-2.3795,-2.3796,-2.3757,-2.3758,-2.3759,-2.376,0,0,0,0,0,0,0,-2.3653,-2.3659,-2.3718,-2.3701,-2.3701,-2.3694,-2.3698,-2.3727,-2.3732,-2.3711,-2.371,-2.3714,-2.3738,-2.3748,-2.3751,-2.3797,-2.3757,-2.3759,-2.3761,-2.3762,-2.3878,-2.3879,0,0,0,0,0,0,-2.3651,-2.3657,-2.3717,-2.3719,-2.3674,-2.3697,-2.3701,-2.3716,-2.3732,-2.3733,-2.3715,-2.3713,-2.3744,-2.3748,-2.3752,-2.3804,-2.3759,-2.3762,-2.3763,-2.3876,-2.3878,-2.388,0,0,0,0,0,0,-2.365,-2.3657,-2.3716,-2.3688,-2.3695,-2.37,-2.3718,-2.3718,-2.3728,-2.3735,-2.3735,-2.3725,-2.3743,-2.3748,-2.3783,-2.3805,-2.3763,-2.3765,-2.3875,-2.3877,-2.3879,-2.3909,0,0,0,0,0,0,-2.3647,-2.3657,-2.3674,-2.3688,-2.3696,-2.3747,-2.3719,-2.3719,-2.3732,-2.373,-2.3744,-2.3745,-2.3743,-2.3779,-2.3786,-2.3807,-2.3767,-2.3873,-2.3876,-2.3878,-2.3906,-2.3912,-2.3917,0,0,0,0,0,-2.3645,-2.3681,-2.3675,-2.3683,-2.3719,-2.3749,-2.3753,-2.3751,-2.3734,-2.3751,-2.3756,-2.3744,-2.3802,-2.3783,-2.379,-2.3813,-2.3871,-2.3875,-2.3878,-2.3904,-2.3911,-2.3917,0,0,0,0,0,0,-2.3668,-2.3683,-2.3676,-2.3719,-2.3733,-2.3745,-2.3767,-2.3759,-2.3777,-2.3773,-2.3769,-2.3772,-2.3808,-2.3814,-2.3793,-2.3856,-2.3834,-2.3839,-2.3851,-2.3858,-2.3863,-2.386,-2.3769,0,0,0,0,0,-2.3679,-2.3703,-2.3714,-2.375,-2.3758,-2.3761,-2.3774,-2.3771,-2.3785,-2.379,-2.3797,-2.3811,-2.3832,-2.3845,-2.3865,-2.3908,-2.3909,-2.3927,-2.3932,-2.3937,-2.3941,-2.3962,-2.3969,-2.3892,-2.3891,-2.3891,0,0,-2.37,-2.3711,-2.3726,-2.3755,-2.3766,-2.3789,-2.3766,-2.3793,-2.381,-2.3794,-2.3827,-2.3833,-2.3847,-2.3886,-2.3903,-2.3892,-2.3963,-2.3941,-2.3945,-2.3946,-2.3966,-2.3974,-2.398,-2.3894,-2.3893,-2.3893,0,0,-2.3751,-2.3762,-2.3793,-2.3804,-2.382,-2.3823,-2.383,-2.3844,-2.3847,-2.3881,-2.3869,-2.3889,-2.3926,-2.3936,-2.3946,-2.4001,-2.399,-2.4008,-2.4036,-2.4057,-2.4063,-2.4068,-2.4086,-2.4093,-2.4012,-2.4012,-2.4012,0,-2.3774,-2.3811,-2.3809,-2.3837,-2.3849,-2.3837,-2.3867,-2.3878,-2.39,-2.3908,-2.3896,-2.3941,-2.395,-2.399,-2.4003,-2.4013,-2.402,-2.4005,-2.4062,-2.4068,-2.4073,-2.4089,-2.4096,-2.4014,-2.4013,-2.4013,-2.4013,0,-2.3839,-2.3864,-2.3887,-2.3909,-2.3924,-2.3953,-2.3954,-2.397,-2.3966,-2.3969,-2.4002,-2.4013,-2.4034,-2.4044,-2.404,-2.4083,-2.4075,-2.4063,-2.404,-2.4082,-2.4097,-2.4104,-2.4016,-2.4016,-2.4015,-2.4015,0,0,-2.3904,-2.3925,-2.3933,-2.3942,-2.396,-2.3979,-2.4007,-2.4028,-2.4041,-2.4056,-2.4078,-2.411,-2.4098,-2.411,-2.4107,-2.4126,-2.4166,-2.4111,-2.4111,-2.4119,-2.4212,-2.422,-2.4228,-2.416,-2.4161,-2.4162,-2.421,0,-2.3954,-2.4003,-2.4002,-2.4047,-2.407,-2.4059,-2.4083,-2.4096,-2.41,-2.4119,-2.4123,-2.4144,-2.4128,-2.4135,-2.4153,-2.4157,-2.4184,-2.4154,-2.4179,-2.418,-2.4173,-2.4236,-2.4245,-2.429,-2.4217,-2.4218,-2.4219,0,-2.4018,-2.4036,-2.4084,-2.4097,-2.4107,-2.4128,-2.4147,-2.4166,-2.418,-2.4182,-2.4195,-2.4189,-2.4216,-2.4194,-2.423,-2.421,-2.422,-2.4223,-2.4225,-2.4226,-2.42,-2.4236,-2.4304,-2.431,-2.4229,-2.4228,-2.4227,0,-2.4058,-2.4095,-2.4127,-2.4136,-2.4153,-2.4168,-2.4176,-2.4189,-2.4201,-2.4218,-2.4226,-2.4246,-2.4256,-2.4271,-2.427,-2.4254,-2.4306,-2.4284,-2.4307,-2.4307,-2.4316,-2.4315,-2.4385,-2.4327,-2.4327,-2.4326,-2.4326,0,-2.4113,-2.4142,-2.4146,-2.4165,-2.4197,-2.4196,-2.4227,-2.4234,-2.4245,-2.4265,-2.4258,-2.4276,-2.4275,-2.4294,-2.4294,-2.4323,-2.4328,-2.4329,-2.4328,-2.4329,-2.4328,-2.4334,-2.433,-2.4328,-2.4328,-2.4327,-2.4327,0,-2.4162,-2.4166,-2.4201,-2.4215,-2.4219,-2.4241,-2.4252,-2.4271,-2.4274,-2.43,-2.4306,-2.4311,-2.4333,-2.4334,-2.4359,-2.4359,-2.4394,-2.4391,-2.4389,-2.4388,-2.4409,-2.4406,-2.4483,-2.4492,-2.443,-2.443,-2.4431,0,-2.4196,-2.4218,-2.4234,-2.4247,-2.4256,-2.4277,-2.429,-2.4291,-2.4304,-2.4322,-2.4338,-2.4359,-2.4376,-2.4411,-2.4416,-2.4435,-2.4431,-2.4456,-2.4433,-2.4433,-2.4429,-2.4427,-2.4428,-2.446,-2.4461,-2.4461,-2.4462,0,-2.4254,-2.4255,-2.4274,-2.4295,-2.4311,-2.4326,-2.4341,-2.4352,-2.4354,-2.437,-2.4392,-2.4405,-2.4431,-2.4452,-2.447,-2.4477,-2.4469,-2.4469,-2.4475,-2.4474,-2.4472,-2.4471,-2.4399,-2.4467,-2.4466,-2.4466,-2.4466,-2.4465,-2.4295,-2.4314,-2.4328,-2.4349,-2.4361,-2.4375,-2.4392,-2.4398,-2.4418,-2.4439,-2.4438,-2.4462,-2.4475,-2.4499,-2.4508,-2.4526,-2.4517,-2.4526,-2.4528,-2.4529,-2.4531,-2.4471,-2.453,-2.4529,-2.4529,-2.4529,-2.4529,0,-2.4351,-2.436,-2.438,-2.4401,-2.4418,-2.4411,-2.4427,-2.4441,-2.4463,-2.4476,-2.4493,-2.4518,-2.4538,-2.4545,-2.4565,-2.4578,-2.4575,-2.4583,-2.458,-2.4582,-2.4539,-2.4531,-2.4585,-2.4585,-2.4585,-2.4585,-2.4585,-2.4585,-2.4382,-2.4413,-2.4416,-2.4451,-2.446,-2.4484,-2.4494,-2.4506,-2.4516,-2.4545,-2.4562,-2.4567,-2.4577,-2.4597,-2.4615,-2.4616,-2.4623,-2.4632,-2.4632,-2.4591,-2.4585,-2.458,-2.4572,-2.4634,-2.4634,-2.4673,-2.4674,-2.4674]},{"header":{"parameterUnit":"m.s-1","parameterCategory":1,"la1":30.2991,"la2":30.254,"lo1":-89.0895,"lo2":-89.0444,"dy":0.0017,"dx":0.0017,"nx":28,"ny":28,"refTime":"2023-11-09T03:00:00:Z","depth":0,"parameterNumber":3,"parameterNumberName":"V-component_of_WINDS"},"data":[0,0,0,0,0,0,0,0,0,0,0,0,0,0,0,0,0,0,0,0,0,0,0,0,0,0,0,0,0,0,0,0,0,0,0,0,0,0,0,0,0,0,0,0,0,0,0,0,0,0,0,0,0,0,0,0,0,0,1.5867,1.5869,0,1.6029,1.6031,1.6033,1.6082,1.6081,1.608,1.6079,1.6245,1.625,1.6255,0,0,0,0,0,0,0,0,0,0,0,0,0,1.5603,1.5608,1.5867,1.5869,1.5871,1.6029,1.6031,1.6033,1.6082,1.6081,1.608,1.6079,1.6243,1.6249,1.6256,0,0,0,0,0,0,0,0,0,0,0,0,0,1.5737,1.5609,1.5867,1.5915,1.592,1.6028,1.6031,1.6034,1.6082,1.6081,1.608,1.6079,1.6241,1.6249,1.6256,1.6328,0,0,1.628,1.6284,0,0,0,0,0,0,0,0,1.5729,1.5746,1.5905,1.5911,1.5918,1.6034,1.5999,1.6132,1.6082,1.6021,1.6079,1.6078,1.6176,1.6189,1.6222,1.6336,1.6343,1.6281,1.6286,1.6289,1.6291,0,0,0,0,0,0,0,1.572,1.574,1.5931,1.5908,1.5916,1.5929,1.5946,1.6024,1.6103,1.6026,1.603,1.6048,1.6179,1.6214,1.6226,1.6346,1.6281,1.6288,1.6292,1.6295,1.6532,1.6534,0,0,0,0,0,0,1.5702,1.5732,1.5926,1.5936,1.5819,1.5934,1.5954,1.5998,1.6102,1.6117,1.6049,1.605,1.6202,1.6217,1.6232,1.6327,1.6289,1.6296,1.6301,1.653,1.6532,1.6534,0,0,0,0,0,0,1.5696,1.5719,1.5919,1.5835,1.5862,1.594,1.5989,1.6002,1.6037,1.612,1.6134,1.6071,1.6201,1.6221,1.6305,1.6333,1.63,1.6307,1.6529,1.6531,1.6533,1.6514,0,0,0,0,0,0,1.5688,1.5717,1.5744,1.5835,1.5866,1.5989,1.5991,1.6006,1.605,1.6053,1.6144,1.6158,1.6202,1.6293,1.6313,1.6343,1.6313,1.6526,1.653,1.6533,1.6513,1.6515,1.6518,0,0,0,0,0,1.5679,1.5731,1.5745,1.5768,1.5902,1.599,1.6008,1.6058,1.6052,1.6081,1.6135,1.6155,1.6326,1.6302,1.6324,1.6357,1.6525,1.6529,1.6532,1.6511,1.6515,1.6518,0,0,0,0,0,0,1.564,1.5744,1.576,1.5843,1.5908,1.5998,1.6036,1.6059,1.6126,1.6126,1.6185,1.6205,1.6286,1.6329,1.63,1.6434,1.6427,1.6435,1.6403,1.6407,1.641,1.6398,1.6319,0,0,0,0,0,1.5641,1.5704,1.5791,1.5856,1.5888,1.5957,1.5997,1.603,1.6099,1.6127,1.6186,1.6253,1.6323,1.6367,1.6435,1.6519,1.6541,1.6553,1.6555,1.6557,1.6564,1.6616,1.6623,1.6546,1.6546,1.6546,0,0,1.5644,1.5709,1.5745,1.585,1.5904,1.597,1.5979,1.6047,1.6097,1.6137,1.6221,1.6267,1.6346,1.6431,1.6471,1.647,1.6591,1.6562,1.6563,1.6569,1.6621,1.6628,1.6634,1.6549,1.6548,1.6548,0,0,1.5684,1.5737,1.5799,1.5854,1.5936,1.5981,1.5996,1.6084,1.6117,1.6202,1.6235,1.6295,1.6412,1.6468,1.6512,1.6576,1.6598,1.6596,1.6612,1.6661,1.6667,1.6673,1.67,1.6708,1.6603,1.6603,1.6603,0,1.5677,1.5776,1.5828,1.5896,1.5943,1.5983,1.6048,1.6098,1.6197,1.623,1.6226,1.6377,1.6432,1.6533,1.655,1.6582,1.6603,1.6587,1.6662,1.6669,1.6675,1.6701,1.671,1.6602,1.6602,1.6603,1.6603,0,1.5766,1.5835,1.5875,1.5972,1.6023,1.6088,1.6152,1.6198,1.6227,1.6274,1.6362,1.643,1.6515,1.654,1.6568,1.6647,1.6644,1.665,1.6644,1.6681,1.6706,1.6716,1.6602,1.6602,1.6602,1.6602,0,0,1.5785,1.5912,1.5926,1.5972,1.6067,1.6121,1.619,1.6273,1.6313,1.6381,1.6442,1.6541,1.655,1.6599,1.6634,1.6678,1.6729,1.668,1.6683,1.669,1.6824,1.682,1.6831,1.6744,1.6746,1.6747,1.6819,0,1.5839,1.5963,1.6013,1.6114,1.618,1.6221,1.6281,1.6347,1.6393,1.6456,1.6507,1.6579,1.6582,1.6613,1.6657,1.6713,1.6757,1.6708,1.6803,1.6806,1.6785,1.6844,1.6839,1.6903,1.6828,1.683,1.6831,0,1.5918,1.5988,1.6096,1.6187,1.6216,1.6269,1.6352,1.6411,1.6488,1.6518,1.6575,1.6609,1.6685,1.6673,1.6779,1.6745,1.6787,1.6821,1.6825,1.6837,1.6822,1.6861,1.6924,1.6935,1.6847,1.6846,1.6844,0,1.5925,1.6046,1.6128,1.6166,1.6272,1.6309,1.6355,1.643,1.6478,1.6551,1.6583,1.6662,1.6707,1.6769,1.6824,1.6809,1.6927,1.6918,1.6957,1.6956,1.6982,1.698,1.7056,1.7003,1.7003,1.7003,1.7003,0,1.5981,1.6046,1.6133,1.6184,1.6259,1.6317,1.639,1.6439,1.6506,1.6569,1.6607,1.6665,1.6733,1.68,1.6844,1.6928,1.6947,1.6976,1.6987,1.6974,1.6971,1.7004,1.7002,1.7006,1.7005,1.7005,1.7004,0,1.6002,1.6062,1.6155,1.6249,1.6274,1.6326,1.6407,1.6459,1.6507,1.6586,1.6607,1.6684,1.6765,1.6826,1.693,1.696,1.7051,1.7061,1.7026,1.7032,1.7069,1.7066,1.7171,1.7189,1.7121,1.7122,1.7122,0,1.6035,1.6087,1.6187,1.6232,1.6279,1.6349,1.64,1.6459,1.651,1.6603,1.6644,1.6728,1.6799,1.6927,1.6993,1.7074,1.7089,1.712,1.7101,1.7088,1.7094,1.7091,1.7099,1.7123,1.7124,1.7124,1.7124,0,1.6089,1.6117,1.6188,1.627,1.6329,1.6397,1.6465,1.6499,1.6572,1.6627,1.6711,1.6766,1.6875,1.6959,1.7048,1.7097,1.7124,1.713,1.7144,1.7132,1.7111,1.7127,1.7036,1.7127,1.7127,1.7127,1.7127,1.7127,1.612,1.6169,1.6249,1.6327,1.6385,1.6449,1.6504,1.656,1.6631,1.6725,1.6755,1.6843,1.6922,1.7044,1.7094,1.7165,1.7165,1.7184,1.719,1.7194,1.7196,1.7097,1.7181,1.7181,1.7181,1.7181,1.7181,0,1.6179,1.6232,1.6304,1.64,1.6462,1.6482,1.6559,1.6611,1.6688,1.6759,1.6828,1.6927,1.701,1.7083,1.717,1.7213,1.7228,1.7234,1.7233,1.7245,1.7188,1.717,1.7221,1.7221,1.7221,1.7221,1.7221,1.7221,1.6217,1.6303,1.6341,1.6457,1.6511,1.6598,1.6641,1.6701,1.6759,1.6868,1.6937,1.6984,1.7057,1.715,1.7228,1.7248,1.728,1.7283,1.7306,1.7253,1.7248,1.7244,1.7226,1.7289,1.7289,1.7358,1.7358,1.7359]}]]